JST456A YSSY-YBNA

Flight info

Callsign JST456A
Flight time 0h 55m
Altitude 35000
Route TESAT H252 OLSEM Y193 BNA
Aircraft A320/M-SDE3FGHIRWY/LB1

Departure

Time 2026-05-06 13:47
Airport Sydney Kingsford Smith International Airport (YSSY)

Arrival

Time 2026-05-06 14:42
Airport Ballina Byron Gateway Airport (YBNA)
Time Latitude Longitude Altitude Speed Heading
2026-05-06 13:14 -33.93524 151.17764 30 ft 0 kts 279°
2026-05-06 13:35 -33.93524 151.17767 30 ft 3 kts 279°
2026-05-06 13:35 -33.93527 151.17799 30 ft 4 kts 267°
2026-05-06 13:35 -33.93522 151.17829 30 ft 4 kts 232°
2026-05-06 13:36 -33.93509 151.17841 30 ft 0 kts 190°
2026-05-06 13:38 -33.93544 151.17834 30 ft 9 kts 189°
2026-05-06 13:38 -33.93614 151.17820 30 ft 11 kts 190°
2026-05-06 13:38 -33.93699 151.17797 30 ft 14 kts 195°
2026-05-06 13:38 -33.93801 151.17766 30 ft 16 kts 190°
2026-05-06 13:39 -33.93920 151.17784 29 ft 19 kts 168°
2026-05-06 13:39 -33.94058 151.17820 29 ft 22 kts 166°
2026-05-06 13:39 -33.94211 151.17859 30 ft 23 kts 168°
2026-05-06 13:39 -33.94378 151.17903 30 ft 26 kts 168°
2026-05-06 13:40 -33.94504 151.17879 30 ft 16 kts 188°
2026-05-06 13:40 -33.94581 151.17897 30 ft 6 kts 170°
2026-05-06 13:40 -33.94623 151.17907 30 ft 7 kts 168°
2026-05-06 13:40 -33.94700 151.17927 30 ft 19 kts 168°
2026-05-06 13:41 -33.94855 151.17968 30 ft 25 kts 167°
2026-05-06 13:41 -33.95025 151.18011 30 ft 19 kts 170°
2026-05-06 13:41 -33.95159 151.18058 30 ft 21 kts 140°
2026-05-06 13:41 -33.95154 151.18216 30 ft 21 kts 78°
2026-05-06 13:42 -33.95121 151.18398 30 ft 24 kts 77°
2026-05-06 13:42 -33.95143 151.18569 30 ft 22 kts 127°
2026-05-06 13:42 -33.95260 151.18702 30 ft 25 kts 141°
2026-05-06 13:42 -33.95408 151.18818 28 ft 27 kts 167°
2026-05-06 13:43 -33.95600 151.18868 29 ft 28 kts 169°
2026-05-06 13:43 -33.95729 151.18901 29 ft 20 kts 164°
2026-05-06 13:43 -33.95770 151.18924 29 ft 0 kts 140°
2026-05-06 13:44 -33.95771 151.18925 29 ft 2 kts 140°
2026-05-06 13:44 -33.95847 151.19007 28 ft 28 kts 138°
2026-05-06 13:44 -33.96040 151.19114 28 ft 32 kts 163°
2026-05-06 13:45 -33.96268 151.19171 30 ft 35 kts 170°
2026-05-06 13:45 -33.96779 151.19298 23 ft 40 kts 168°
2026-05-06 13:45 -33.96982 151.19350 24 ft 18 kts 171°
2026-05-06 13:46 -33.97071 151.19348 27 ft 2 kts 166°
2026-05-06 13:46 -33.97070 151.19371 28 ft 4 kts 66°
2026-05-06 13:46 -33.97040 151.19372 28 ft 7 kts 345°
2026-05-06 13:46 -33.96890 151.19329 24 ft 50 kts 348°
2026-05-06 13:47 -33.96322 151.19178 28 ft 114 kts 348°
2026-05-06 13:47 -33.95385 151.18938 114 ft 151 kts 347°
2026-05-06 13:47 -33.94371 151.18699 794 ft 150 kts 355°
2026-05-06 13:47 -33.93335 151.18888 1461 ft 154 kts 16°
2026-05-06 13:48 -33.92403 151.19550 2157 ft 157 kts 30°
2026-05-06 13:48 -33.91528 151.20327 2752 ft 157 kts 30°
2026-05-06 13:48 -33.90647 151.21102 3330 ft 159 kts 30°
2026-05-06 13:48 -33.89694 151.21930 3645 ft 180 kts 31°
2026-05-06 13:49 -33.88610 151.22869 3947 ft 204 kts 31°
2026-05-06 13:49 -33.87393 151.23925 4316 ft 225 kts 31°
2026-05-06 13:49 -33.86064 151.25082 4779 ft 244 kts 32°
2026-05-06 13:49 -33.84679 151.26299 4964 ft 252 kts 34°
2026-05-06 13:50 -33.83486 151.27958 5272 ft 276 kts 59°
2026-05-06 13:50 -33.82791 151.30188 6161 ft 285 kts 70°
2026-05-06 13:50 -33.82210 151.32459 7028 ft 290 kts 70°
2026-05-06 13:50 -33.81593 151.34788 7905 ft 294 kts 65°
2026-05-06 13:51 -33.80634 151.36956 8758 ft 295 kts 51°
2026-05-06 13:51 -33.79351 151.38889 9630 ft 297 kts 47°
2026-05-06 13:51 -33.78028 151.40840 10295 ft 310 kts 47°
2026-05-06 13:51 -33.76617 151.42921 10555 ft 333 kts 47°
2026-05-06 13:52 -33.75103 151.45158 10752 ft 357 kts 48°
2026-05-06 13:52 -33.73489 151.47551 10888 ft 380 kts 48°
2026-05-06 13:52 -33.71783 151.50088 11119 ft 398 kts 48°
2026-05-06 13:52 -33.70029 151.52698 11695 ft 404 kts 48°
2026-05-06 13:53 -33.68253 151.55340 12349 ft 408 kts 48°
2026-05-06 13:53 -33.66459 151.58004 13037 ft 412 kts 47°
2026-05-06 13:53 -33.64479 151.60491 13704 ft 413 kts 38°
2026-05-06 13:53 -33.62189 151.62559 14323 ft 413 kts 30°
2026-05-06 13:54 -33.59773 151.64446 14946 ft 416 kts 30°
2026-05-06 13:54 -33.57342 151.66348 15546 ft 419 kts 30°
2026-05-06 13:54 -33.54895 151.68267 16107 ft 422 kts 30°
2026-05-06 13:54 -33.52432 151.70202 16690 ft 425 kts 30°
2026-05-06 13:55 -33.50769 151.71442 17056 ft 425 kts 26°
2026-05-06 13:55 -33.48083 151.72924 17597 ft 425 kts 17°
2026-05-06 13:55 -33.45248 151.73930 18135 ft 426 kts 12°
2026-05-06 13:55 -33.42373 151.74858 18626 ft 429 kts 12°
2026-05-06 13:56 -33.39477 151.75787 19086 ft 432 kts 12°
2026-05-06 13:56 -33.36561 151.76724 19544 ft 435 kts 11°
2026-05-06 13:56 -33.33629 151.77666 19974 ft 438 kts 11°
2026-05-06 13:56 -33.30675 151.78619 20409 ft 441 kts 11°
2026-05-06 13:57 -33.27706 151.79582 20821 ft 444 kts 11°
2026-05-06 13:57 -33.24719 151.80548 21219 ft 446 kts 11°
2026-05-06 13:57 -33.21716 151.81514 21594 ft 448 kts 11°
2026-05-06 13:57 -33.18700 151.82487 21948 ft 451 kts 10°
2026-05-06 13:58 -33.15664 151.83469 22295 ft 453 kts 10°
2026-05-06 13:58 -33.12616 151.84453 22633 ft 455 kts 10°
2026-05-06 13:58 -33.09551 151.85440 22957 ft 457 kts
2026-05-06 13:58 -33.06469 151.86425 23290 ft 459 kts
2026-05-06 13:59 -33.03375 151.87410 23607 ft 461 kts
2026-05-06 13:59 -33.00266 151.88403 23883 ft 463 kts
2026-05-06 13:59 -32.97151 151.89403 24170 ft 465 kts
2026-05-06 13:59 -32.94020 151.90409 24443 ft 466 kts
2026-05-06 14:00 -32.90881 151.91414 24706 ft 468 kts
2026-05-06 14:00 -32.87738 151.92418 24934 ft 469 kts
2026-05-06 14:00 -32.84579 151.93429 25160 ft 470 kts
2026-05-06 14:00 -32.81415 151.94441 25379 ft 471 kts
2026-05-06 14:01 -32.78243 151.95453 25591 ft 472 kts
2026-05-06 14:01 -32.75065 151.96467 25788 ft 473 kts
2026-05-06 14:01 -32.71885 151.97482 26065 ft 472 kts
2026-05-06 14:01 -32.68717 151.98495 26355 ft 471 kts
2026-05-06 14:02 -32.65555 151.99508 26654 ft 470 kts
2026-05-06 14:02 -32.62398 152.00516 26962 ft 469 kts
2026-05-06 14:02 -32.59251 152.01516 27271 ft 468 kts
2026-05-06 14:02 -32.56108 152.02511 27588 ft 467 kts
2026-05-06 14:03 -32.52971 152.03500 27920 ft 466 kts
2026-05-06 14:03 -32.49843 152.04486 28244 ft 464 kts
2026-05-06 14:03 -32.46725 152.05472 28587 ft 463 kts
2026-05-06 14:03 -32.43616 152.06461 28892 ft 463 kts
2026-05-06 14:04 -32.40506 152.07448 29215 ft 462 kts
2026-05-06 14:04 -32.37406 152.08431 29568 ft 461 kts
2026-05-06 14:04 -32.34311 152.09411 29940 ft 460 kts
2026-05-06 14:04 -32.31225 152.10386 30293 ft 459 kts
2026-05-06 14:05 -32.28145 152.11356 30616 ft 458 kts
2026-05-06 14:05 -32.25070 152.12325 30912 ft 457 kts
2026-05-06 14:05 -32.22002 152.13289 31180 ft 456 kts
2026-05-06 14:05 -32.18931 152.14251 31486 ft 456 kts
2026-05-06 14:06 -32.15868 152.15213 31775 ft 456 kts
2026-05-06 14:06 -32.12804 152.16180 32080 ft 455 kts
2026-05-06 14:06 -32.09745 152.17143 32401 ft 455 kts
2026-05-06 14:06 -32.06689 152.18103 32736 ft 454 kts
2026-05-06 14:07 -32.03645 152.19060 33061 ft 453 kts
2026-05-06 14:07 -32.00600 152.20014 33373 ft 452 kts
2026-05-06 14:07 -31.97558 152.20968 33710 ft 452 kts
2026-05-06 14:07 -31.94559 152.21903 34031 ft 451 kts
2026-05-06 14:08 -31.91488 152.22861 34327 ft 451 kts
2026-05-06 14:08 -31.88501 152.23795 34608 ft 450 kts
2026-05-06 14:08 -31.85474 152.24739 34890 ft 450 kts
2026-05-06 14:08 -31.82446 152.25686 35043 ft 450 kts
2026-05-06 14:09 -31.76387 152.27580 35067 ft 450 kts
2026-05-06 14:09 -31.70340 152.29479 35074 ft 449 kts
2026-05-06 14:10 -31.64295 152.31350 35077 ft 449 kts
2026-05-06 14:10 -31.61273 152.32283 35080 ft 450 kts
2026-05-06 14:11 -31.58728 152.33072 35080 ft 450 kts
2026-05-06 14:11 -31.52680 152.34954 35065 ft 450 kts
2026-05-06 14:12 -31.46631 152.36831 35081 ft 450 kts
2026-05-06 14:12 -31.40577 152.38696 35095 ft 450 kts
2026-05-06 14:13 -31.34516 152.40563 35098 ft 450 kts
2026-05-06 14:13 -31.28460 152.42436 35084 ft 450 kts
2026-05-06 14:14 -31.22443 152.44294 35094 ft 450 kts
2026-05-06 14:14 -31.16387 152.46163 35089 ft 450 kts
2026-05-06 14:15 -31.10331 152.48022 35098 ft 450 kts
2026-05-06 14:15 -31.04272 152.49878 35081 ft 450 kts
2026-05-06 14:16 -30.98205 152.51735 35106 ft 451 kts
2026-05-06 14:16 -30.92141 152.53599 35094 ft 451 kts
2026-05-06 14:17 -30.86077 152.55455 35097 ft 451 kts
2026-05-06 14:17 -30.80017 152.57383 35081 ft 457 kts
2026-05-06 14:18 -30.74096 152.60333 35089 ft 464 kts 13°
2026-05-06 14:18 -30.68189 152.63373 35096 ft 464 kts 13°
2026-05-06 14:19 -30.62275 152.66408 35052 ft 464 kts 13°
2026-05-06 14:19 -30.56372 152.69434 35074 ft 464 kts 13°
2026-05-06 14:20 -30.50460 152.72456 35087 ft 464 kts 12°
2026-05-06 14:20 -30.44590 152.75454 35101 ft 464 kts 13°
2026-05-06 14:21 -30.38678 152.78470 35097 ft 464 kts 12°
2026-05-06 14:21 -30.32766 152.81476 35103 ft 464 kts 12°
2026-05-06 14:22 -30.26860 152.84482 35108 ft 464 kts 13°
2026-05-06 14:22 -30.20949 152.87485 35111 ft 464 kts 13°
2026-05-06 14:23 -30.15037 152.90486 35071 ft 464 kts 12°
2026-05-06 14:23 -30.09120 152.93478 35083 ft 464 kts 12°
2026-05-06 14:24 -30.03201 152.96470 35101 ft 465 kts 12°
2026-05-06 14:24 -29.97278 152.99465 34940 ft 464 kts 12°
2026-05-06 14:25 -29.94320 153.00961 34671 ft 464 kts 12°
2026-05-06 14:25 -29.91401 153.02435 33843 ft 466 kts 13°
2026-05-06 14:25 -29.88421 153.03934 32867 ft 468 kts 13°
2026-05-06 14:25 -29.85438 153.05435 31895 ft 468 kts 14°
2026-05-06 14:26 -29.82447 153.06939 30915 ft 469 kts 15°
2026-05-06 14:26 -29.79455 153.08445 29850 ft 471 kts 15°
2026-05-06 14:26 -29.76445 153.09958 28631 ft 473 kts 16°
2026-05-06 14:26 -29.73429 153.11476 27483 ft 473 kts 17°
2026-05-06 14:27 -29.70405 153.12999 26216 ft 475 kts 17°
2026-05-06 14:27 -29.67372 153.14519 25016 ft 477 kts 17°
2026-05-06 14:27 -29.64328 153.16040 23858 ft 477 kts 18°
2026-05-06 14:27 -29.61285 153.17560 22555 ft 477 kts 18°
2026-05-06 14:28 -29.58257 153.19076 21522 ft 471 kts 18°
2026-05-06 14:28 -29.55277 153.20572 20544 ft 464 kts 19°
2026-05-06 14:28 -29.52331 153.22047 19573 ft 460 kts 19°
2026-05-06 14:28 -29.49414 153.23506 18620 ft 456 kts 19°
2026-05-06 14:29 -29.46524 153.24952 17695 ft 449 kts 19°
2026-05-06 14:29 -29.43724 153.26355 17455 ft 428 kts 19°
2026-05-06 14:29 -29.41079 153.27686 17256 ft 400 kts 19°
2026-05-06 14:29 -29.38613 153.28929 16734 ft 378 kts 19°
2026-05-06 14:30 -29.36245 153.30111 16090 ft 362 kts 18°
2026-05-06 14:30 -29.34011 153.31222 15738 ft 352 kts 18°
2026-05-06 14:30 -29.31772 153.32330 15254 ft 349 kts 18°
2026-05-06 14:30 -29.29547 153.33430 14769 ft 347 kts 18°
2026-05-06 14:31 -29.27339 153.34522 14279 ft 345 kts 18°
2026-05-06 14:31 -29.25137 153.35612 13690 ft 345 kts 19°
2026-05-06 14:31 -29.22941 153.36701 13188 ft 342 kts 19°
2026-05-06 14:31 -29.20771 153.37778 12708 ft 338 kts 19°
2026-05-06 14:32 -29.18619 153.38848 12231 ft 336 kts 19°
2026-05-06 14:32 -29.16485 153.39908 11768 ft 334 kts 19°
2026-05-06 14:32 -29.14361 153.40962 11296 ft 332 kts 19°
2026-05-06 14:32 -29.12246 153.42010 10831 ft 331 kts 19°
2026-05-06 14:33 -29.10138 153.43053 10369 ft 330 kts 19°
2026-05-06 14:33 -29.08067 153.44084 10220 ft 319 kts 19°
2026-05-06 14:33 -29.06074 153.45079 10104 ft 307 kts 19°
2026-05-06 14:33 -29.04138 153.46044 9894 ft 300 kts 19°
2026-05-06 14:34 -29.02232 153.46987 9568 ft 298 kts 19°
2026-05-06 14:34 -29.00325 153.47922 9169 ft 298 kts 19°
2026-05-06 14:34 -28.98354 153.48554 8790 ft 292 kts
2026-05-06 14:34 -28.96350 153.48571 8414 ft 287 kts 349°
2026-05-06 14:35 -28.94388 153.48241 8032 ft 286 kts 348°
2026-05-06 14:35 -28.92412 153.47915 7611 ft 287 kts 349°
2026-05-06 14:35 -28.90458 153.47596 7220 ft 288 kts 349°
2026-05-06 14:35 -28.88492 153.47276 7015 ft 280 kts 349°
2026-05-06 14:36 -28.86614 153.46973 7012 ft 265 kts 349°
2026-05-06 14:36 -28.84769 153.46921 6555 ft 272 kts
2026-05-06 14:36 -28.83022 153.47779 5838 ft 279 kts 36°
2026-05-06 14:36 -28.81699 153.49377 5340 ft 274 kts 49°
2026-05-06 14:37 -28.80496 153.51026 4950 ft 270 kts 48°
2026-05-06 14:37 -28.79279 153.52670 4569 ft 272 kts 48°
2026-05-06 14:37 -28.78053 153.54317 4193 ft 272 kts 48°
2026-05-06 14:37 -28.76854 153.55927 3815 ft 259 kts 49°
2026-05-06 14:38 -28.75741 153.57419 3492 ft 235 kts 49°
2026-05-06 14:38 -28.74909 153.58906 3183 ft 215 kts 69°
2026-05-06 14:38 -28.74670 153.60535 2904 ft 205 kts 92°
2026-05-06 14:38 -28.74974 153.62067 2663 ft 193 kts 113°
2026-05-06 14:39 -28.75688 153.63301 2378 ft 181 kts 133°
2026-05-06 14:39 -28.76655 153.64123 2136 ft 167 kts 152°
2026-05-06 14:39 -28.77714 153.64532 1923 ft 157 kts 169°
2026-05-06 14:39 -28.78775 153.64573 1689 ft 150 kts 186°
2026-05-06 14:40 -28.79771 153.64279 1460 ft 148 kts 203°
2026-05-06 14:40 -28.80650 153.63690 1270 ft 146 kts 220°
2026-05-06 14:40 -28.81325 153.62844 1091 ft 144 kts 237°
2026-05-06 14:40 -28.81801 153.61868 881 ft 141 kts 247°
2026-05-06 14:41 -28.82114 153.60816 664 ft 140 kts 256°
2026-05-06 14:41 -28.82375 153.59756 490 ft 139 kts 253°
2026-05-06 14:41 -28.82652 153.58709 311 ft 138 kts 255°
2026-05-06 14:41 -28.82924 153.57668 147 ft 137 kts 254°
2026-05-06 14:42 -28.83193 153.56633 15 ft 129 kts 253°
2026-05-06 14:42 -28.83375 153.55940 16 ft 50 kts 253°
2026-05-06 14:42 -28.83447 153.55666 14 ft 7 kts 253°
2026-05-06 14:42 -28.83494 153.55658 14 ft 9 kts 162°
2026-05-06 14:43 -28.83557 153.55681 14 ft 9 kts 162°
2026-05-06 14:43 -28.83622 153.55697 14 ft 11 kts 182°
2026-05-06 14:43 -28.83646 153.55647 14 ft 7 kts 235°
2026-05-06 14:43 -28.83689 153.55619 15 ft 5 kts 208°
2026-05-06 14:44 -28.83692 153.55617 14 ft 0 kts 207°